Miscellaneous Local Product
Issued by NWS North Platte, NE

Home | Current Version | Previous Version | Text Only | Print | Product List | Glossary On
Versions: 1 2 3 4 5 6 7 8 9 10 11 12 13 14 15 16 17 18 19 20 21 22 23 24 25 26 27 28 29 30 31 32 33 34 35 36 37 38 39 40 41 42 43 44 45 46 47 48 49 50
300
AXUS43 KLBF 180610
MISLBF


WESTERN AND NORTH CENTRAL NEBRASKA HOURLY WEATHER ROUNDUP
NATIONAL WEATHER SERVICE NORTH PLATTE NE
1200 AM CST THU JAN 18 2018

NOTE: "FAIR" INDICATES FEW OR NO CLOUDS BELOW 12,000 FEET WITH NO
SIGNIFICANT WEATHER AND/OR OBSTRUCTIONS TO VISIBILITY.

NOTE: STATIONS NOT REPORTING VARIABLES SUCH AS SKY/WEATHER OR
PRESSURE ARE PROVIDED BY RAWS AND APRS NETWORKS AND ARE NOT UNDER
NATIONAL WEATHER SERVICE QUALITY CONTROL.

...OBSERVATIONS IN AND NEAR THE EASTERN PANHANDLE OF NEBRASKA...

CITY           SKY/WX    TMP DP  RH WIND       PRES   REMARKS
PINE RIDGE     CLEAR     27  19  72 W7        30.12F WCI  19
GORDON         FAIR      31  21  67 SW12      30.12F WCI  22
CHADRON        CLEAR     26  21  81 SW10      30.13F WCI  16
ALLIANCE       CLEAR     15  14  95 W7        30.16R WCI   5
SIDNEY         CLEAR     25  20  81 W10       30.19S WCI  15
CRESCENT LAKE    N/A     26  19  75 W6          N/A  WCI  19
$$

...OBSERVATIONS IN NORTHERN NEBRASKA AND FAR SOUTHERN SOUTH DAKOTA...

CITY           SKY/WX    TMP DP  RH WIND       PRES   REMARKS
WINNER         FAIR      30  22  72 SW8       30.12F WCI  22
VALENTINE      CLEAR     21  18  88 SW7       30.13F WCI  12
AINSWORTH      CLEAR     25  22  87 W8        30.14S WCI  16
O`NEILL        CLEAR     20  18  91 CALM      30.16R
THEDFORD       CLEAR     26  20  81 SW6       30.16F WCI  19
BROKEN BOW     CLEAR     25  15  66 CALM      30.16F
ORD            CLEAR     23  15  71 W5        30.17F WCI  17
ALBION         CLOUDY    25  17  71 W8        30.20S WCI  16
VALENTINE NWR    N/A     28  21  74 W6          N/A  WCI  22
HALSEY           N/A     24  19  79 SW3         N/A
BUTTE            N/A     27  22  81 W3          N/A
CHAMBERS         N/A     23  16  74 W3          N/A
EWING            N/A     22  17  80 SW3         N/A
$$

...OBSERVATIONS IN SOUTHWEST NEBRASKA AND FAR NORTHEAST COLORADO...

CITY           SKY/WX    TMP DP  RH WIND       PRES   REMARKS
WRAY           FAIR      19  14  79 SW5       30.20F WCI  13
HOLYOKE        FAIR      21  14  73 W8        30.19F WCI  12
IMPERIAL       CLEAR     20  16  84 W7        30.19F WCI  11
OGALLALA       CLEAR     21  18  88 W5        30.19S WCI  15
NORTH PLATTE   CLEAR     16  11  80 NW3       30.19F
MCCOOK         CLEAR     18  14  84 W5        30.21F WCI  11
LEXINGTON      CLEAR     19  14  79 CALM      30.19F
STAPLETON        N/A     20  16  83 CALM        N/A
GOTHENBURG       N/A     23  16  74 CALM        N/A
CALLAWAY         N/A     26  19  75 SW5         N/A  WCI  20
$$

...OBSERVATIONS IN CENTRAL LINCOLN COUNTY AREA...

CITY           SKY/WX    TMP DP  RH WIND       PRES   REMARKS
N.P. AIRPORT   CLEAR     16  11  80 NW3       30.19F
N.P. DOWNTOWN    N/A     20  17  86 CALM        N/A
N.P. SOUTHEAST   N/A     21  16  81 CALM        N/A
N.P. HILLCREST   N/A     22  18  84 W3          N/A
$$

...SOME OBSERVATIONS FROM AROUND THE REGION...

CITY           SKY/WX    TMP DP  RH WIND       PRES   REMARKS
DENVER         CLEAR     26  14  60 S8        30.20F WCI  18
BERTHOUD PASS  FAIR      12   1  62 NW23G30   30.34S WCI  -7
GRAND JUNCTION CLEAR     22  13  68 E3        30.38R
LARAMIE        CLEAR     18  11  74 S7        30.23F WCI   9
CHEYENNE       CLEAR     31  11  43 SW13      30.20R WCI  21
CASPER         MOCLDY    37  22  54 SW21G29   30.16S WCI  26
BISMARCK       MOCLDY    31  22  69 CALM      29.96F
RAPID CITY     PTCLDY    31  19  61 CALM      30.04F
PIERRE         CLEAR     31  25  78 SW13      30.06F WCI  21
SIOUX FALLS    CLOUDY    21  16  81 SW6       30.11F WCI  13
OMAHA          CLOUDY    15   9  76 SE9       30.28F WCI   3
GRAND ISLAND   CLOUDY    19  13  77 SW7       30.21F WCI  10
SCOTTSBLUFF    CLEAR     15  12  88 N6        30.18R WCI   6
KANSAS CITY    CLOUDY    17   9  70 SW13      30.38F WCI   4
HILL CITY      CLOUDY    20  10  65 W6        30.24F WCI  12
WICHITA        CLOUDY    20   8  60 S12       30.39F WCI   8
DODGE CITY     CLEAR     25   8  48 SW14      30.27F WCI  13
OKLAHOMA CITY  CLOUDY    19   6  57 S12       30.48F WCI   7
DALLAS         CLOUDY    24   8  50 S8        30.58F WCI  15
AMARILLO       CLOUDY    22   1  40 S13       30.35S WCI  10
$$




USA.gov is the U.S. government's official web portal to all federal, state and local government web resources and services.